Theta_e
327 326 339 348 350 353 354 355 359 362 367 358 355 362 357 363 363 359 361 357 356 352 350 350 347 345 350 356 355 356 355 354 355 352 347 350 350 349 350 346 347 346 348 350 350 350 350 350 349 350 351 349 349 349 350 351 351 351 351 351 352 351 351 350 350 351 352 352 352 353 352 351 350 350 352 352 352 351 350 351 352 354 353 353 354 354 353 354 353 353 353 352 352 352 352 351 351
326 330 341 350 351 355 361 359 365 364 360 353 353 363 358 361 361 356 362 358 355 349 348 351 352 351 352 354 352 352 353 352 352 351 350 350 351 351 349 347 347 346 348 349 350 349 348 349 348 349 350 349 348 347 349 349 349 349 349 350 351 351 351 351 351 352 352 353 353 354 353 352 350 350 352 351 351 351 351 350 351 353 353 353 353 354 353 353 353 353 353 352 352 351 351 351 350
333 338 342 349 355 357 362 361 365 360 353 351 352 366 364 360 360 357 361 358 353 349 349 353 357 355 351 354 353 354 354 351 351 351 351 351 351 352 350 346 346 346 347 349 350 348 346 348 348 348 347 347 347 346 347 348 349 348 348 349 351 351 352 354 353 353 353 353 354 354 353 352 350 349 351 350 350 350 351 349 349 353 353 353 353 353 353 352 352 352 352 352 351 350 350 350 350
341 347 346 350 359 360 366 370 371 361 352 353 349 364 372 361 359 358 358 355 350 350 351 354 358 354 354 357 353 357 356 352 351 350 351 351 350 352 350 347 347 347 346 348 349 347 345 346 346 347 347 347 347 348 349 350 351 349 348 349 351 352 353 354 354 353 353 353 353 353 353 351 349 349 350 350 350 349 350 349 348 353 353 353 353 353 354 352 351 350 350 351 350 350 349 350 350
344 350 351 353 363 362 368 372 373 363 355 360 353 363 377 363 358 357 355 353 350 351 350 351 355 351 353 354 351 358 357 352 352 350 351 351 350 351 349 347 347 346 346 347 346 346 346 346 347 348 348 349 349 350 351 351 351 351 350 349 351 352 353 354 354 353 353 353 353 353 352 351 349 350 351 349 348 348 350 348 347 352 354 353 353 354 354 352 351 350 349 349 349 349 349 351 350
346 352 353 354 361 359 366 365 363 362 362 372 363 364 369 358 359 357 354 355 354 352 349 349 350 351 353 350 349 354 352 351 352 350 351 351 351 350 349 348 347 346 346 345 345 346 347 348 349 348 350 349 349 350 351 351 351 351 351 351 351 352 353 353 353 352 353 353 353 353 351 350 348 350 351 349 348 348 348 347 349 353 354 354 353 353 352 351 350 350 349 347 347 348 349 351 350
347 355 358 359 361 361 369 363 362 367 366 371 367 368 365 354 356 356 356 355 354 351 348 348 347 354 355 351 352 351 348 351 351 350 351 351 351 350 348 347 347 346 345 343 345 346 348 350 349 348 349 349 349 349 350 349 350 352 351 352 352 352 353 353 352 351 352 352 352 353 351 350 349 350 350 348 349 348 347 348 351 353 353 353 353 352 350 349 349 349 348 346 346 347 349 351 350
350 358 361 363 369 369 370 366 367 371 366 365 367 371 367 360 356 354 357 353 353 351 348 349 347 356 356 353 357 352 349 351 350 351 351 351 351 349 347 347 347 346 344 343 345 348 349 350 349 349 349 349 349 349 350 349 350 351 352 351 351 351 353 353 352 351 352 351 352 353 351 350 350 351 350 349 349 348 348 351 352 352 353 353 353 353 350 350 350 350 348 346 345 347 349 350 349
353 359 361 363 372 369 365 366 367 370 372 371 370 370 367 370 366 356 356 353 353 352 351 352 349 356 356 354 356 351 349 351 351 352 352 351 350 348 347 346 346 345 343 344 346 349 350 350 349 349 349 349 349 349 350 350 350 350 352 352 350 351 353 354 352 351 352 351 352 352 351 350 350 351 350 349 350 349 350 352 352 353 353 353 353 353 351 351 351 350 348 345 344 346 349 349 349
356 358 361 366 371 363 359 364 367 372 374 372 371 370 365 370 367 354 356 356 354 354 353 352 352 355 355 355 356 352 351 352 352 353 353 351 348 348 348 347 344 342 343 345 348 350 350 349 349 349 349 350 350 350 350 350 350 350 351 352 351 352 353 353 352 351 352 352 352 352 351 350 351 351 350 350 349 350 351 351 351 353 353 353 353 352 351 351 349 348 346 344 342 346 349 349 348
364 361 360 366 366 359 358 360 368 376 376 371 367 365 364 366 363 354 356 357 355 355 353 353 355 354 354 356 355 352 352 353 352 353 352 350 349 349 350 349 344 341 344 347 349 350 350 350 349 349 349 349 350 350 350 350 350 351 352 352 351 352 353 352 351 351 351 352 352 352 352 351 351 350 350 350 349 350 351 351 351 352 352 352 352 351 349 347 344 343 342 342 342 345 349 348 347
365 367 366 366 362 361 362 362 367 376 378 373 365 364 365 361 358 355 357 358 356 355 354 354 355 353 355 357 355 352 352 353 352 352 351 350 350 351 351 351 347 342 345 348 349 350 351 351 350 351 351 350 351 351 350 350 351 351 351 351 351 352 352 352 351 350 351 351 351 351 351 351 350 350 350 349 349 350 350 351 351 351 351 350 349 348 346 342 339 339 340 341 342 345 348 347 346
363 366 370 366 361 365 365 364 367 370 372 371 365 364 365 363 362 358 357 358 357 357 356 353 351 352 356 356 353 351 351 352 352 352 350 350 351 352 352 350 347 345 348 349 350 351 352 352 351 352 353 352 352 351 349 350 351 350 349 350 350 352 352 352 350 349 350 351 351 350 351 351 351 350 350 349 349 350 349 350 350 350 349 347 344 343 341 338 336 337 339 339 340 344 346 346 346
362 363 368 367 364 367 365 364 367 364 364 370 368 363 363 365 367 363 357 357 357 356 354 350 349 354 355 355 355 352 351 351 351 352 351 352 352 352 352 350 349 349 350 350 351 351 352 352 352 352 352 353 352 351 350 350 350 349 348 350 350 351 352 351 350 349 350 351 351 351 351 352 352 351 350 350 350 349 349 349 349 349 347 344 340 339 338 336 334 335 336 336 337 342 345 345 345
361 363 368 371 367 366 364 365 368 363 363 369 368 364 364 361 365 368 360 359 357 351 350 349 349 357 357 355 356 352 350 351 351 352 351 352 352 353 352 351 350 350 351 351 351 350 350 350 350 351 351 352 352 351 350 349 351 349 349 351 351 351 352 350 349 350 350 351 352 351 351 352 352 352 351 350 349 348 348 349 348 347 345 343 340 339 337 334 333 333 333 333 333 338 342 343 344
363 368 369 370 367 364 365 369 367 364 366 368 363 360 363 361 364 367 360 360 356 348 352 351 348 356 356 352 353 351 350 351 350 352 352 353 353 353 353 351 351 351 351 351 350 349 349 349 349 349 350 350 350 350 350 350 351 351 351 351 350 350 350 350 350 350 350 351 352 351 351 352 352 352 351 349 348 348 349 349 348 346 344 342 339 337 334 332 332 332 332 333 333 335 339 342 343
363 370 372 368 366 364 369 372 366 366 370 369 365 362 362 362 363 363 361 361 354 351 354 350 347 350 351 350 351 350 350 350 351 352 353 353 354 354 353 352 351 351 351 350 349 349 348 348 348 348 347 348 348 348 350 350 350 352 351 349 350 349 348 351 351 350 350 351 351 351 352 351 351 352 350 348 347 348 349 349 348 347 343 339 336 334 333 333 333 334 335 334 335 337 340 342 343
364 370 369 367 369 368 369 368 364 366 367 368 370 367 364 362 362 361 362 361 355 356 353 348 348 348 348 350 350 350 350 351 352 353 352 353 353 353 353 352 352 352 351 350 349 348 348 347 346 346 346 347 348 349 350 349 350 351 350 349 350 349 348 351 351 350 351 350 350 351 351 350 350 350 349 347 347 349 350 349 347 344 340 338 335 334 335 336 336 336 337 337 338 339 341 342 342
366 368 365 368 372 369 366 364 363 362 362 369 370 365 363 364 364 363 362 360 356 356 351 349 350 349 349 348 349 350 351 352 352 352 352 353 352 353 352 352 352 352 351 350 349 348 347 346 346 346 347 348 349 349 350 350 350 350 350 350 351 350 349 350 350 350 350 350 350 349 349 350 349 349 348 348 349 351 351 350 347 342 339 339 337 336 337 336 336 336 337 338 339 341 341 342 343
367 365 367 373 369 365 366 365 363 364 365 369 368 364 364 364 367 365 364 361 356 355 351 352 352 350 349 348 348 350 351 352 352 352 352 352 352 352 352 352 352 351 350 348 348 348 347 347 347 348 348 350 350 350 350 350 350 350 350 350 350 350 350 351 350 349 350 350 350 348 349 349 349 349 349 350 351 353 352 351 346 341 340 339 337 337 336 337 339 342 342 343 343 343 343 343 344
362 360 368 373 362 363 369 365 364 366 366 366 365 363 363 363 364 365 365 359 356 355 352 351 351 349 348 348 349 350 351 351 351 352 352 352 352 352 351 351 351 350 349 349 348 348 348 348 349 349 349 350 350 349 350 350 350 349 349 349 349 349 350 351 349 349 350 350 349 349 348 349 350 350 351 351 352 353 351 348 343 340 340 338 337 337 338 341 346 349 349 349 348 346 346 346 346
360 358 359 364 360 365 370 366 366 366 365 365 363 360 360 361 362 364 365 358 353 353 351 349 349 347 348 348 349 350 350 350 351 351 351 352 351 351 351 350 351 350 349 349 348 348 348 349 349 349 349 349 349 349 349 350 349 349 349 349 348 348 349 349 349 349 349 349 349 349 348 349 350 351 351 351 351 352 348 343 341 341 340 340 340 342 345 347 349 350 350 350 349 349 348 348 347
361 363 358 359 361 366 369 366 367 365 364 365 363 359 357 361 364 363 365 362 355 352 349 347 346 346 347 348 349 349 350 350 351 351 351 351 351 350 350 349 351 350 350 349 348 348 348 348 349 349 348 349 349 349 349 349 349 348 348 348 348 348 348 348 349 348 348 348 348 349 349 350 351 351 351 350 350 349 345 342 341 341 342 343 345 347 348 349 350 350 350 350 350 349 348 347 345
359 369 366 363 361 362 362 362 364 363 362 361 361 359 357 363 365 360 365 366 358 352 348 346 346 346 347 348 349 349 349 350 350 350 351 351 350 350 350 350 350 350 349 349 349 348 348 349 348 348 348 349 349 349 349 349 348 348 348 348 348 348 348 348 347 347 348 348 348 348 349 350 351 351 350 349 348 345 343 342 342 342 344 346 347 348 349 350 349 350 350 350 350 348 347 346 343
358 369 366 360 359 358 356 357 360 359 360 358 359 361 360 362 361 357 361 361 354 351 348 346 345 345 347 347 348 348 348 349 349 350 351 350 350 350 350 350 350 350 349 349 349 349 349 349 348 348 348 349 349 349 348 349 348 348 347 347 347 347 347 347 346 347 347 347 348 348 349 350 350 349 348 346 344 343 342 342 343 344 345 347 348 349 350 350 350 350 350 350 349 347 347 346 343
359 364 361 359 359 358 356 356 357 357 358 359 360 360 359 359 361 361 357 353 350 349 348 347 346 344 345 346 346 347 346 347 348 349 350 350 351 350 351 351 350 349 349 349 349 349 350 349 347 348 348 349 349 349 349 349 349 348 347 347 346 346 346 345 346 346 347 347 347 348 349 349 348 346 345 343 342 342 342 342 343 344 346 348 349 350 350 350 350 350 350 349 349 347 347 348 345
361 360 358 358 359 357 356 357 356 357 357 358 360 359 359 357 360 363 355 350 348 348 348 347 346 345 343 345 345 344 344 344 347 348 349 350 351 351 351 351 350 349 349 349 349 349 350 349 347 348 348 349 349 349 350 350 349 349 348 347 346 346 345 345 346 346 346 347 347 347 347 347 346 344 343 342 342 342 341 341 342 344 347 349 349 350 350 351 351 351 349 349 349 347 347 348 348
360 359 360 357 356 356 354 356 355 356 357 357 359 359 359 357 359 361 353 349 348 347 349 347 346 346 344 344 344 343 343 344 346 347 349 350 351 351 351 351 350 349 349 349 349 349 349 348 348 349 348 348 349 349 350 350 350 350 349 349 347 345 345 346 346 346 345 346 346 345 345 345 343 342 342 342 342 342 342 342 344 347 348 349 349 350 350 351 351 350 349 349 348 347 347 348 348
358 359 364 361 358 357 354 354 354 356 359 357 359 360 359 361 362 360 352 348 349 350 349 348 347 346 345 344 344 344 343 343 346 347 348 350 351 352 351 351 350 349 349 348 348 349 348 347 348 349 349 347 348 349 349 349 350 350 350 349 348 346 345 345 345 345 345 346 346 344 344 343 342 341 341 341 342 344 345 346 348 349 349 349 350 351 351 350 350 350 348 348 348 348 348 347 347
361 360 364 364 361 361 357 353 354 358 358 356 360 360 358 363 361 358 356 349 350 351 349 349 348 346 345 345 344 345 344 343 346 347 349 350 351 351 351 351 349 348 349 349 349 349 347 347 348 348 349 348 348 349 348 349 349 350 350 350 349 346 344 344 344 345 346 347 347 345 343 342 341 342 343 344 346 347 348 349 349 349 350 350 351 352 351 350 350 349 348 347 347 348 347 347 347
363 360 363 365 360 360 358 352 355 360 356 355 362 360 358 363 359 357 359 354 350 351 348 349 348 346 346 345 345 345 343 344 346 347 349 350 350 351 350 350 349 349 350 350 349 349 348 348 348 348 348 348 347 347 347 348 349 350 351 350 348 346 344 343 343 344 345 347 347 345 343 343 344 345 345 346 348 348 348 348 348 349 350 351 352 352 351 350 349 350 349 348 348 347 347 347 347
363 357 358 363 359 359 360 354 357 361 358 358 362 359 358 361 358 357 359 356 351 350 349 349 349 347 346 345 344 343 342 343 345 347 348 349 351 350 350 350 350 350 350 350 349 349 349 348 348 348 348 348 346 345 347 348 350 351 352 350 348 347 346 344 344 344 346 347 348 347 347 348 348 347 347 347 347 348 348 348 350 350 351 351 351 351 350 350 349 350 351 350 348 348 347 347 346
363 359 357 359 360 361 360 358 357 359 361 360 362 362 360 361 358 357 360 357 351 350 350 349 348 347 346 345 343 342 342 344 345 346 348 349 350 350 349 349 350 350 349 349 349 349 349 348 347 348 348 348 346 345 348 349 350 351 350 349 349 349 349 348 347 346 347 347 348 349 350 350 349 348 348 348 348 349 349 350 351 351 352 351 350 351 350 351 350 350 350 350 349 349 347 346 345
359 362 361 358 360 359 358 362 358 357 362 361 363 365 362 362 359 358 361 359 352 350 350 348 348 347 346 344 343 341 342 345 346 345 347 350 350 350 350 350 349 350 350 349 349 348 349 347 346 348 348 349 347 346 348 349 350 350 350 350 350 351 351 350 348 348 348 347 348 349 350 350 349 349 349 349 350 350 351 352 352 352 352 351 350 352 352 352 352 351 350 350 350 349 347 346 345
357 358 361 358 360 359 357 363 359 357 363 362 361 363 362 362 361 361 362 360 354 348 349 348 346 347 345 342 342 341 341 344 345 344 347 349 349 349 349 351 350 350 350 350 349 349 349 348 345 347 348 348 348 347 348 349 350 350 350 350 351 351 351 350 349 348 347 347 348 349 350 350 349 350 351 350 351 351 352 352 352 352 352 351 350 351 352 352 352 352 351 350 349 347 347 346 345
359 358 360 360 358 359 362 365 360 358 364 362 361 361 362 362 364 365 363 363 359 349 348 349 347 346 345 343 342 340 341 342 343 344 347 348 349 350 350 351 351 350 350 350 350 349 350 348 345 346 348 348 348 347 347 349 350 350 350 350 351 351 350 350 349 348 347 348 349 351 351 351 351 352 352 351 351 352 353 353 352 352 351 352 351 351 352 352 353 352 351 350 348 346 347 346 345
357 359 358 360 357 357 366 367 361 361 364 363 362 360 361 364 366 366 363 367 367 355 348 348 347 346 344 344 342 340 340 340 340 343 347 348 349 349 350 351 351 351 350 351 350 350 350 349 346 346 347 348 348 347 347 348 349 350 350 350 350 350 350 350 349 349 349 350 351 352 352 352 352 352 352 351 351 352 354 354 351 350 352 353 352 352 352 353 354 352 351 350 349 348 347 347 347
351 362 358 358 356 359 366 367 363 363 366 366 364 363 363 364 366 364 362 368 371 363 357 349 344 346 346 345 343 341 340 339 340 344 346 348 349 349 351 351 352 352 351 351 351 350 350 348 347 347 347 348 347 346 346 347 348 349 349 349 349 349 350 350 349 349 350 351 352 351 352 352 352 352 352 352 351 353 354 353 351 350 353 354 352 352 352 352 354 353 352 351 351 352 350 349 349
348 363 358 355 358 362 362 365 363 361 366 367 363 365 365 363 362 362 362 367 369 364 363 360 352 347 346 345 343 342 341 343 344 346 347 347 348 349 350 351 351 352 352 351 351 351 350 348 347 348 348 348 347 346 347 347 348 349 349 349 348 349 350 349 348 348 348 350 351 350 351 352 351 351 351 352 352 354 354 353 352 352 352 353 352 352 352 352 354 354 353 352 351 352 351 350 350
353 365 354 354 360 360 358 362 362 360 363 364 363 364 363 359 358 361 361 363 366 362 361 365 363 358 352 347 345 342 341 345 347 346 347 347 348 349 349 350 351 351 351 351 351 351 350 349 348 348 349 349 348 347 348 349 350 350 349 348 347 347 348 348 348 348 349 350 351 350 351 351 352 351 351 352 353 354 354 354 354 353 352 351 351 352 354 354 354 354 354 353 352 352 351 350 350
350 362 352 355 362 360 360 361 362 362 361 360 361 360 358 358 358 362 362 361 363 360 361 365 367 368 367 359 350 345 342 344 348 347 346 347 348 348 349 349 350 351 351 350 351 350 351 351 349 348 350 350 349 348 349 350 350 350 349 347 348 348 349 349 349 350 352 352 350 349 349 351 352 353 353 353 354 354 354 354 355 355 353 351 351 353 355 354 354 354 354 353 353 353 351 350 350
338 355 352 356 362 361 363 362 359 359 357 358 358 353 355 359 359 362 365 364 363 361 363 365 366 368 370 365 354 348 345 344 347 347 346 347 347 348 348 349 349 349 350 351 350 351 351 352 350 349 350 350 349 349 349 350 350 349 349 350 350 351 351 351 351 352 353 353 350 348 349 350 351 353 353 353 354 354 354 354 354 355 353 352 353 354 354 354 354 355 353 353 353 353 352 351 350
333 353 352 355 361 362 362 359 356 355 354 358 358 354 354 357 359 361 364 365 364 362 364 364 365 366 367 368 362 354 347 345 346 346 346 347 347 347 347 348 349 349 349 350 350 351 352 351 351 350 350 350 349 349 350 350 350 348 349 350 350 351 352 353 352 352 353 353 351 350 350 350 350 351 351 352 354 354 355 354 353 354 354 353 354 354 353 353 354 354 353 353 354 354 352 351 351
331 350 357 360 364 362 360 358 356 356 356 358 360 358 354 353 357 361 363 365 364 363 363 363 364 364 364 368 368 361 351 346 347 346 347 347 347 347 347 348 349 349 349 350 350 351 352 352 352 352 351 350 349 349 350 350 349 348 348 348 349 349 350 351 352 352 353 353 353 353 353 351 349 350 351 353 355 355 354 353 353 354 354 354 355 354 354 353 353 353 352 354 355 354 352 352 352
328 346 358 359 361 361 360 357 355 356 355 355 357 356 353 353 358 362 364 364 364 364 362 362 364 362 361 362 365 364 354 346 345 347 347 347 347 347 348 348 349 349 349 350 350 351 352 352 352 352 351 349 349 349 349 349 349 348 348 348 348 348 348 349 350 352 353 354 353 353 354 353 351 351 353 355 356 356 354 353 354 355 354 354 354 354 353 353 353 353 352 353 354 353 353 353 351
333 349 352 350 353 355 354 354 354 354 353 353 353 353 351 353 357 361 364 362 363 363 360 360 361 360 360 359 360 361 356 347 345 346 347 347 348 348 348 348 349 349 350 349 350 351 351 352 352 352 351 350 350 350 349 350 349 348 348 349 349 348 349 348 349 352 354 354 354 354 355 355 353 354 355 355 357 356 354 353 354 355 354 354 353 353 352 352 354 354 352 351 351 351 352 352 351
346 354 349 345 348 350 350 353 351 349 350 349 349 352 350 350 354 357 361 361 361 361 357 358 360 358 358 357 356 359 356 347 344 346 346 346 347 348 348 348 349 350 350 350 351 351 351 352 352 352 352 351 351 350 351 351 350 349 349 350 350 348 349 349 349 352 355 354 354 355 355 354 354 356 356 355 356 357 355 353 353 354 355 355 353 353 353 352 354 354 351 351 352 349 348 350 351
355 356 350 347 350 352 353 353 349 349 351 348 347 352 351 349 352 356 359 359 357 358 356 357 359 359 357 355 354 358 356 347 343 346 347 346 348 348 348 348 349 350 350 350 351 351 352 352 352 352 351 351 351 350 352 353 351 350 350 350 350 350 350 350 350 351 354 355 354 355 355 353 354 356 356 355 356 356 355 354 354 354 355 356 354 353 355 355 354 353 351 352 353 351 348 349 351
355 352 346 346 349 352 352 351 350 350 348 345 347 351 352 350 352 354 358 356 354 356 355 354 357 357 356 354 352 357 357 347 342 346 347 347 348 348 348 348 349 350 350 350 351 352 352 352 352 352 351 350 350 351 353 353 351 350 351 351 350 350 350 350 350 351 352 354 354 355 354 354 355 356 356 356 356 356 356 355 354 353 354 356 355 354 355 356 354 353 352 352 353 352 351 349 350
351 346 343 346 349 351 351 347 346 347 342 342 349 350 350 349 349 353 355 354 353 354 354 353 354 355 355 353 351 355 359 351 342 344 347 347 348 348 348 349 349 350 350 351 351 352 352 352 352 352 351 351 351 353 354 353 352 351 351 350 351 351 351 351 351 351 352 353 354 354 354 354 355 355 355 356 356 356 356 355 354 354 354 355 355 354 354 355 354 354 354 353 353 353 353 352 352
344 345 343 342 344 346 348 345 342 343 344 345 347 348 350 347 347 355 355 352 353 353 353 353 352 354 354 352 351 353 359 356 346 343 347 347 347 348 348 349 349 350 350 351 351 352 352 352 352 352 351 351 352 354 354 353 353 352 351 350 350 351 351 352 352 352 352 353 354 353 353 354 355 355 355 355 356 356 355 354 353 354 355 356 355 355 355 354 354 355 355 354 354 354 353 354 353
330 336 337 338 340 338 338 338 336 340 348 351 347 348 357 357 354 362 361 355 354 353 354 354 351 354 354 352 352 352 357 359 350 343 346 347 346 348 349 349 350 350 350 351 352 352 353 352 353 353 351 352 353 355 355 354 354 353 352 351 350 351 352 353 353 353 353 353 353 352 351 353 354 354 354 355 355 354 354 354 353 354 356 356 356 355 355 355 354 354 355 354 355 355 354 355 354
325 327 330 339 343 333 326 325 327 336 346 350 346 346 357 359 357 364 366 360 356 354 355 354 351 353 354 353 353 352 355 358 353 344 344 347 346 348 349 349 349 350 351 352 352 352 353 353 353 353 353 353 353 355 355 355 354 354 353 352 351 352 353 353 353 353 353 352 353 352 351 352 352 353 353 354 354 354 354 354 353 353 355 355 356 356 356 356 355 354 354 354 354 355 355 355 355
325 323 327 335 333 330 329 322 321 328 336 342 343 346 351 349 352 365 367 361 358 356 355 354 353 352 354 354 353 354 355 356 354 346 343 346 346 347 349 349 349 350 351 352 353 353 353 353 354 354 354 354 354 355 354 355 355 354 354 354 353 353 352 353 352 352 352 352 351 352 351 352 353 354 354 354 355 354 354 354 353 353 354 354 355 355 355 355 355 354 354 353 352 353 355 355 355
324 325 331 329 321 325 327 321 319 321 328 341 345 346 347 346 353 365 367 362 361 358 357 356 354 352 353 353 353 354 354 356 355 349 344 345 346 347 348 349 349 349 351 352 353 354 353 353 354 354 354 354 354 354 355 355 355 355 355 354 354 355 354 352 351 352 352 351 351 352 353 353 354 354 355 354 354 354 354 354 354 353 353 354 354 354 355 355 354 354 354 353 353 352 353 353 354
326 329 336 328 320 322 321 319 323 322 329 343 346 343 344 348 359 368 369 368 364 359 358 357 355 353 352 352 353 355 354 355 355 350 347 345 345 346 347 348 350 349 350 352 353 354 354 353 354 354 354 354 355 355 355 356 356 355 355 355 355 356 355 353 351 351 352 352 352 353 353 354 353 353 354 354 353 354 354 354 354 354 353 354 354 353 354 355 355 354 353 354 354 354 354 354 355
327 329 334 332 327 324 319 318 321 324 336 346 345 344 348 352 361 368 370 371 366 361 359 359 357 355 353 353 353 354 353 354 355 352 349 346 344 345 347 348 349 349 350 352 353 354 354 354 354 355 355 356 356 356 356 356 356 356 355 355 354 355 355 354 352 350 351 352 352 352 352 353 352 352 354 354 354 354 354 354 354 354 353 353 354 354 354 355 355 356 355 356 356 356 356 356 356
329 331 333 333 329 322 318 319 322 322 333 344 346 346 349 353 359 363 367 368 365 363 361 360 359 356 355 354 353 353 353 353 354 352 350 347 345 344 346 347 348 349 351 352 354 354 355 355 355 355 356 356 356 357 356 357 356 356 356 355 354 354 354 354 352 351 351 352 352 352 352 353 353 353 354 354 354 354 354 354 354 354 354 354 355 355 355 355 355 356 357 357 357 357 356 356 357
Wind_Speed
4 7 6 4 3 2 2 1 1 1 3 3 1 1 2 2 1 2 6 6 4 4 3 5 9 6 4 5 6 5 3 4 4 4 2 3 17 26 21 18 18 18 19 17 16 15 14 14 13 13 12 11 10 10 10 9 10 10 10 11 11 12 13 13 14 13 12 11 11 12 13 13 14 14 13 13 15 15 14 13 12 12 13 13 14 14 14 14 14 14 14 14 13 13 13 13 13
6 7 5 2 1 1 0 1 2 2 3 3 1 1 2 0 1 5 8 7 4 4 5 7 6 4 6 9 7 6 4 2 2 3 1 9 22 22 19 19 19 19 19 18 16 15 15 14 13 13 12 12 11 9 10 10 10 10 10 11 11 12 12 13 13 12 12 11 11 12 12 13 14 13 12 13 14 14 13 12 11 12 13 13 13 13 14 14 13 13 13 12 12 12 12 12 12
7 6 4 2 0 1 0 1 2 2 4 4 1 3 1 1 3 6 8 7 6 10 9 7 6 2 5 8 4 4 2 2 3 3 4 15 17 15 19 19 20 19 19 20 17 15 16 15 14 13 12 11 11 10 10 10 10 10 11 11 11 11 12 12 12 12 11 11 11 12 12 13 14 13 12 13 13 14 13 11 11 11 11 12 13 13 13 13 13 12 12 11 12 12 12 11 11
6 4 3 2 0 0 1 1 1 3 4 3 2 3 1 3 4 5 5 7 11 12 9 6 4 2 3 6 2 3 3 1 3 4 6 12 14 18 20 20 20 18 19 19 18 17 16 16 15 13 12 11 11 10 9 9 9 9 10 11 11 11 11 11 11 11 11 11 11 12 12 13 14 13 12 13 12 13 13 11 11 10 10 11 12 12 12 13 12 12 11 11 11 12 11 11 11
5 2 1 2 0 0 1 2 1 3 4 3 3 2 0 3 6 7 4 6 8 10 8 5 2 1 4 3 1 2 3 4 4 6 10 10 16 22 20 21 21 19 19 18 18 17 15 15 14 13 12 12 11 11 9 9 8 9 9 10 10 10 11 11 11 11 10 11 11 12 12 13 14 13 12 13 13 13 12 11 10 8 9 10 10 11 12 12 11 11 11 11 11 11 11 10 11
5 2 1 2 0 0 1 2 2 2 3 3 3 1 3 4 6 8 6 6 5 6 5 4 5 5 4 3 3 3 3 6 6 9 14 15 19 22 21 22 21 20 19 18 18 16 15 14 13 13 12 12 11 11 10 9 9 9 9 9 10 10 10 10 11 12 11 11 11 12 12 13 14 13 12 12 13 13 12 11 9 8 8 9 10 10 11 11 11 10 10 10 10 10 11 10 11
3 0 1 0 0 0 1 3 3 1 1 2 2 2 4 5 7 10 8 6 6 5 4 5 8 8 3 2 3 2 6 7 8 12 17 21 22 21 21 21 20 20 18 17 17 15 14 12 12 11 11 11 10 11 10 10 9 9 9 9 10 10 10 10 11 12 11 11 11 11 12 13 13 13 12 12 13 12 12 11 9 8 9 9 10 11 11 10 10 9 9 9 9 10 10 9 10
1 0 0 1 1 1 2 2 2 1 0 2 1 1 2 2 4 9 8 5 3 2 5 7 7 7 3 4 3 2 9 9 11 18 22 24 23 21 21 20 19 18 17 16 15 14 13 12 12 11 10 10 10 10 9 10 10 9 10 9 10 10 10 10 11 12 11 12 11 11 13 13 14 13 12 13 12 12 12 10 9 10 10 10 10 10 10 10 9 8 8 8 8 9 9 9 9
1 1 0 1 1 2 1 2 1 1 1 2 1 2 0 2 2 5 7 5 6 4 4 5 2 6 4 5 4 1 9 14 18 22 24 25 23 22 21 19 19 17 16 15 14 13 13 12 11 11 10 10 9 10 10 10 9 10 9 9 10 10 11 10 11 12 12 12 11 12 13 14 14 13 13 13 12 12 11 10 11 11 11 10 9 10 9 9 8 7 7 7 8 8 9 9 9
2 1 1 1 2 2 1 1 1 0 2 2 2 3 2 2 1 4 9 7 7 6 4 4 4 8 7 5 3 1 10 19 22 22 23 24 23 22 20 18 18 17 16 15 14 13 12 11 11 11 10 9 9 9 9 10 10 10 9 9 10 10 11 10 11 12 12 12 11 12 13 13 14 14 14 13 13 12 11 11 12 12 10 9 9 9 8 7 7 6 7 7 8 8 8 9 9
2 2 1 1 3 2 1 1 1 2 2 3 3 1 3 2 5 4 10 9 4 8 7 6 7 9 9 4 2 6 16 20 21 22 23 24 22 21 19 17 16 16 16 15 14 12 11 11 11 10 10 10 9 8 8 9 10 10 9 9 10 10 11 11 11 12 12 12 12 11 12 13 13 14 14 13 13 12 11 11 11 11 10 9 8 8 7 7 7 7 7 7 7 8 8 9 9
2 2 1 2 2 1 1 2 2 2 2 3 3 4 3 4 8 7 11 10 6 9 6 3 6 7 8 3 1 10 17 17 18 21 23 23 21 20 19 17 16 16 16 15 14 13 11 10 10 10 9 9 9 8 8 9 9 9 9 10 11 11 11 11 11 13 13 12 12 12 12 12 13 14 14 13 12 11 11 11 10 10 10 9 8 7 6 6 7 7 7 7 7 7 9 9 8
0 1 2 2 1 1 1 2 2 2 2 2 1 5 4 5 5 5 9 11 10 8 4 5 10 6 5 3 3 8 12 15 18 20 22 22 21 21 19 18 17 17 16 15 15 13 12 11 10 9 8 8 9 9 9 10 9 9 11 12 12 11 12 13 12 13 13 12 12 12 12 12 13 14 14 13 12 11 11 10 10 10 9 8 7 6 6 6 7 7 6 6 6 8 9 9 7
1 1 2 1 1 1 1 2 2 2 0 1 1 3 3 3 1 1 8 11 4 4 6 8 10 7 6 5 4 5 9 17 19 19 21 21 21 21 19 19 18 17 16 15 14 13 11 11 10 9 8 8 8 9 9 10 10 10 12 12 12 12 12 13 12 13 13 13 12 12 12 11 12 13 14 13 12 11 10 10 10 9 8 8 7 6 6 6 6 6 6 6 6 9 9 8 6
3 0 2 2 2 2 1 1 2 3 2 1 1 1 3 2 1 2 5 8 2 4 10 8 5 6 6 7 6 7 13 21 19 19 21 20 20 20 19 19 18 17 15 13 12 11 10 10 9 8 8 9 8 8 8 9 10 10 10 10 11 12 12 13 13 12 13 13 13 13 12 12 11 12 13 13 11 11 10 10 9 9 8 8 7 6 6 6 6 5 5 5 6 9 9 7 6
2 2 2 2 1 0 0 1 3 3 2 1 1 3 6 2 1 3 0 2 5 6 5 5 4 3 7 6 8 14 20 22 20 21 21 20 19 19 18 18 17 15 12 11 10 9 9 9 9 8 8 9 9 9 8 8 9 9 9 10 12 12 13 13 13 13 14 14 14 13 12 13 12 12 13 13 12 11 10 10 8 8 7 7 7 6 6 7 6 5 5 5 6 8 8 8 7
1 3 2 2 1 1 2 3 3 3 2 3 2 2 6 1 2 1 1 1 8 6 3 3 2 4 8 7 14 22 23 23 23 23 21 20 19 18 17 17 16 13 11 10 8 8 9 9 9 8 8 9 9 10 9 8 8 9 9 11 12 13 13 13 14 14 14 14 15 15 14 14 14 13 13 13 12 11 10 9 8 7 7 6 7 7 8 8 7 6 6 6 7 8 8 8 7
1 2 1 0 2 2 3 5 4 3 4 4 3 3 6 5 1 1 2 4 5 6 5 6 6 8 11 14 22 24 24 26 24 22 19 17 17 16 15 15 14 12 11 9 8 9 9 9 9 9 9 10 10 9 9 8 8 10 10 11 12 12 12 13 15 15 14 14 15 16 16 15 15 15 14 13 12 10 9 8 7 6 7 7 8 9 8 8 7 7 6 6 7 7 7 7 6
1 2 1 2 3 3 3 6 5 4 5 5 3 4 5 5 3 0 3 6 5 7 6 8 10 10 12 17 23 23 24 25 22 21 18 16 15 14 14 13 13 13 11 9 9 10 10 10 10 11 11 11 10 9 9 8 9 10 11 11 12 12 12 14 15 16 16 15 15 15 16 16 17 16 14 13 11 10 9 8 7 7 8 8 8 9 8 7 7 6 5 5 4 4 4 4 4
2 2 1 4 4 3 2 6 6 4 7 8 6 5 4 4 3 0 3 7 7 8 8 9 12 12 13 15 19 22 22 21 20 19 16 16 15 15 15 14 14 14 12 11 10 12 12 12 12 11 11 11 10 9 9 10 10 11 12 13 13 13 14 14 15 16 17 15 15 15 16 17 17 16 14 13 12 10 8 7 7 8 8 8 8 8 7 7 6 5 4 2 1 2 3 4 4
2 3 3 3 2 2 2 6 5 5 7 8 7 6 5 3 2 2 5 7 6 7 9 11 15 15 15 14 16 19 19 18 18 17 15 15 14 13 14 15 16 15 13 12 13 13 14 14 13 12 11 11 10 10 10 11 11 11 12 13 13 14 15 15 15 16 16 15 15 16 16 17 16 16 15 14 12 10 9 8 8 9 9 8 8 7 6 6 4 3 2 1 1 3 4 5 7
1 3 4 3 2 2 1 3 5 6 7 7 7 7 6 3 2 2 5 7 6 6 10 13 15 16 17 16 16 17 16 15 15 15 15 14 14 12 13 15 16 16 14 14 15 15 15 15 13 12 11 12 11 11 11 12 12 12 13 13 13 14 14 16 16 15 15 15 16 16 17 17 16 16 15 14 13 10 9 9 9 9 8 8 7 6 5 3 2 2 3 4 5 7 8 9 9
2 3 3 3 1 1 3 1 4 4 4 5 6 4 4 3 1 2 3 5 4 6 11 14 14 16 20 18 16 15 13 13 14 16 16 16 16 14 15 16 18 18 16 16 17 16 16 15 13 12 13 13 13 13 12 13 13 12 13 13 13 14 15 16 16 15 15 16 17 16 16 16 16 16 15 13 12 10 9 9 9 9 8 8 6 5 3 2 3 5 6 7 9 10 10 9 8
5 2 1 3 5 4 4 4 6 6 4 1 1 5 7 3 1 3 2 5 5 8 12 13 15 18 19 17 14 14 13 13 15 18 19 19 18 17 17 18 20 20 17 17 18 18 17 15 14 14 14 14 14 14 13 13 13 13 13 14 14 15 15 15 15 15 15 16 16 16 16 16 16 15 14 12 10 9 8 9 9 9 8 7 4 2 2 3 5 7 8 10 10 10 10 9 6
6 1 2 3 6 5 4 6 7 7 6 2 4 6 5 2 3 4 7 6 9 11 13 13 15 17 15 14 14 13 12 14 16 17 17 17 18 17 16 18 20 20 19 19 19 19 18 14 15 16 16 15 15 15 14 14 14 13 14 14 15 15 15 15 15 15 15 16 16 16 15 15 15 13 12 11 10 10 9 10 10 9 7 4 1 1 3 5 6 8 9 10 9 9 10 9 6
5 4 4 5 5 5 4 5 6 6 4 4 8 5 1 3 5 2 8 7 14 14 14 14 14 15 13 13 13 12 11 13 15 16 15 17 18 17 16 18 20 21 20 20 20 20 18 16 17 17 16 16 16 16 15 15 14 14 14 14 14 15 15 16 16 15 16 16 16 15 14 13 13 11 11 11 11 10 10 10 10 7 4 1 1 3 4 7 8 9 9 8 8 8 9 9 7
7 9 8 8 7 5 5 6 6 5 3 2 10 8 0 4 4 1 6 8 16 16 14 14 14 13 13 13 12 12 12 14 17 16 16 16 17 17 17 18 19 21 20 20 20 20 18 18 18 17 16 17 17 17 16 15 14 14 14 14 14 14 15 16 16 16 16 16 15 14 13 12 12 12 12 12 11 10 10 10 8 6 3 0 3 4 5 7 8 8 8 7 8 9 9 9 8
12 12 10 8 8 7 7 7 4 3 4 3 7 9 2 2 2 1 5 9 15 17 15 14 13 10 11 13 12 10 11 14 19 18 17 17 18 19 19 20 20 21 21 21 21 21 19 19 18 16 16 17 17 17 17 16 15 15 15 14 14 14 16 17 16 16 16 15 14 13 12 12 12 12 12 11 11 10 9 8 6 4 1 1 4 5 5 6 7 7 7 7 8 9 9 8 7
9 8 8 5 5 7 7 5 3 2 4 2 4 8 1 2 2 4 4 10 14 15 15 13 12 10 9 12 10 8 9 14 18 18 20 21 21 21 21 21 22 22 21 21 22 21 20 20 18 16 16 17 16 17 17 16 16 15 15 14 14 15 16 17 16 17 16 14 13 12 12 12 12 11 10 10 10 9 9 7 4 2 1 2 3 4 5 5 6 7 7 7 7 8 8 7 7
5 5 5 3 3 3 4 3 2 2 4 2 0 5 2 2 3 7 6 9 14 13 14 12 10 9 9 9 8 7 7 12 16 18 21 23 22 23 22 21 23 23 21 21 22 22 21 20 18 18 17 16 17 17 16 17 17 16 15 14 14 15 16 17 17 17 15 13 12 12 12 12 11 9 9 9 10 9 7 5 2 1 1 2 2 3 5 5 6 7 7 6 7 8 8 7 8
4 4 2 2 1 1 2 1 3 0 3 3 2 4 3 1 1 6 8 6 14 13 12 11 9 10 9 8 8 7 7 12 17 19 22 23 23 23 23 23 23 23 22 22 23 22 21 20 19 20 19 17 17 17 17 18 18 16 15 13 15 16 17 17 17 16 14 12 12 12 12 11 10 8 8 9 9 8 6 4 3 2 2 2 2 4 5 5 5 6 6 7 7 7 7 6 8
2 3 1 2 1 1 1 2 4 2 2 2 1 3 3 2 3 7 7 4 13 13 12 11 10 11 10 8 8 6 6 12 17 19 21 23 24 24 25 25 25 24 24 24 23 22 21 20 21 21 20 18 17 18 18 19 18 16 14 14 15 15 15 15 15 15 13 12 12 12 11 9 8 8 8 8 7 6 5 4 4 4 4 3 3 5 5 3 4 4 5 7 8 7 7 7 8
1 2 2 1 2 2 2 1 3 1 3 1 0 2 3 3 5 6 4 4 10 12 12 12 11 11 10 8 8 7 6 8 12 15 20 22 23 25 26 27 27 26 25 24 24 23 21 20 22 22 21 20 19 19 20 20 18 16 14 14 14 13 12 12 13 13 12 12 12 11 10 9 8 7 7 8 7 5 5 5 5 5 3 2 3 5 3 3 4 4 4 6 8 8 8 8 9
1 2 2 2 3 4 3 1 2 3 1 2 3 4 2 3 6 4 3 4 9 11 12 13 11 10 9 8 8 7 7 8 8 13 20 21 22 25 26 28 28 27 26 25 25 23 21 21 22 23 22 21 20 21 21 20 18 16 16 14 14 12 10 10 11 12 12 12 12 12 10 9 9 8 8 8 7 6 6 6 5 4 2 2 3 3 2 2 4 5 5 5 6 8 9 10 10
4 2 2 2 3 4 5 2 3 5 2 2 6 5 2 2 7 5 1 2 7 9 10 12 11 10 9 8 8 8 8 9 10 16 22 22 22 24 25 26 27 28 27 25 25 23 21 21 22 23 22 21 21 21 21 20 18 17 16 15 14 12 10 10 11 12 12 12 12 11 10 10 9 8 8 8 8 8 8 7 5 3 3 2 2 2 1 2 3 4 6 5 5 7 8 9 9
7 5 3 5 3 2 4 1 4 7 4 4 8 8 5 5 5 5 1 1 4 8 8 8 9 9 8 9 8 9 10 9 12 20 23 22 23 25 25 25 27 27 27 26 25 23 21 21 22 23 23 22 22 22 22 21 19 18 17 16 16 14 13 12 12 12 13 13 12 11 11 11 10 8 7 7 7 8 7 6 6 5 4 2 1 1 1 3 4 5 6 7 7 7 7 7 8
4 4 2 4 4 1 1 1 4 5 3 4 7 10 10 7 3 4 2 2 1 5 8 8 8 8 9 10 9 10 10 10 15 22 23 23 24 25 25 25 25 25 26 27 25 23 22 22 22 23 22 22 22 23 23 23 22 20 18 18 17 16 16 15 13 13 13 13 13 12 12 12 11 9 8 8 8 8 7 6 6 5 4 2 1 1 1 3 5 6 6 7 8 9 8 7 8
2 4 3 3 3 1 1 1 3 2 2 2 4 8 9 4 2 2 3 3 2 1 5 8 9 7 8 10 11 11 8 8 13 17 20 22 23 24 25 25 26 26 27 27 26 24 23 23 23 23 23 23 24 24 24 24 23 22 21 20 19 19 19 17 16 15 14 14 14 13 13 12 11 10 9 9 9 9 7 6 6 6 4 3 2 1 1 3 5 6 6 6 8 10 9 9 9
2 3 4 3 2 2 2 2 2 0 1 2 3 6 5 1 0 2 2 3 2 2 2 4 6 7 7 9 11 11 8 8 11 13 17 21 22 24 24 24 26 27 28 28 27 25 25 24 24 24 24 24 25 25 24 24 23 21 20 20 20 20 21 19 17 16 15 15 15 14 13 13 11 11 11 10 10 9 8 7 6 6 5 3 2 1 1 2 4 5 6 7 8 10 9 9 9
3 4 4 3 5 4 1 3 5 1 1 2 3 2 1 3 4 4 3 3 2 3 2 2 3 6 7 8 9 11 11 11 12 12 14 19 21 23 23 23 25 25 26 27 26 26 26 26 25 25 25 24 25 26 25 23 21 19 17 18 20 20 20 20 18 17 15 14 14 15 14 13 12 11 11 11 11 10 9 7 6 5 5 5 4 2 1 2 3 4 6 7 8 10 10 10 10
3 6 5 5 8 6 2 6 7 3 3 4 5 2 2 2 5 7 3 3 2 3 2 2 3 4 4 5 6 9 11 12 13 13 13 16 20 22 23 24 25 25 26 27 27 27 27 27 27 26 25 25 26 27 25 23 20 19 19 19 20 19 19 20 20 19 17 15 14 15 15 15 13 12 12 11 11 10 9 8 7 6 5 5 4 2 2 1 2 3 5 6 7 10 11 10 9
3 7 10 10 11 7 8 11 8 3 2 4 6 3 3 4 7 9 4 4 5 4 3 4 4 4 4 5 6 6 8 11 14 14 14 16 20 22 23 24 25 26 28 29 29 27 28 29 28 27 26 25 26 27 26 23 21 21 23 23 21 20 20 21 22 22 19 17 15 15 15 15 15 13 12 12 10 9 9 9 8 6 5 4 3 2 1 0 1 2 4 5 5 7 10 11 10
3 6 8 8 10 10 14 15 9 4 4 5 8 5 2 2 7 11 8 7 8 6 6 7 5 5 5 5 7 6 6 8 12 14 14 16 20 21 21 24 26 27 28 30 29 28 28 30 30 28 27 26 27 28 27 25 23 23 24 24 23 22 22 22 22 21 18 16 15 15 14 14 15 14 13 12 10 8 8 9 8 7 5 5 4 3 1 1 2 1 3 4 4 6 8 11 12
4 5 9 12 12 13 16 14 6 2 2 4 7 4 1 3 6 9 9 9 10 9 9 9 6 6 6 5 6 6 7 8 10 13 13 16 20 22 23 25 28 28 29 29 29 29 29 30 30 29 28 27 28 29 27 26 25 25 24 24 23 23 23 22 21 20 18 16 15 15 14 14 14 14 13 12 10 8 8 9 9 8 7 6 4 3 2 2 2 1 1 2 3 5 6 9 11
6 2 9 10 10 10 10 7 2 1 3 3 7 4 1 4 3 5 8 9 12 13 13 12 9 8 7 7 7 6 7 8 10 12 14 17 21 25 26 28 28 28 29 30 30 30 30 31 31 29 29 28 28 28 28 26 25 25 25 24 24 23 22 21 20 19 18 18 17 15 14 14 14 14 13 12 10 8 9 9 9 8 8 7 5 3 2 1 2 2 1 1 1 3 5 7 8
2 12 14 11 10 8 5 3 3 2 2 3 9 8 3 3 2 5 7 8 13 15 14 13 11 10 9 8 8 7 6 8 10 12 15 19 24 27 28 28 28 29 30 31 31 30 31 31 30 30 30 29 28 28 27 26 25 25 25 25 24 23 21 20 20 19 19 19 18 16 15 15 16 15 13 12 11 10 10 10 10 9 9 8 6 4 3 3 3 3 2 1 2 3 3 4 6
10 15 13 11 9 6 5 4 3 2 2 4 11 12 5 2 3 7 8 13 17 16 13 13 12 11 10 9 8 8 7 7 10 11 14 21 25 27 27 27 27 28 29 29 30 30 31 31 30 30 31 30 29 28 26 25 25 25 25 25 25 24 22 21 21 21 21 20 19 17 16 16 17 16 13 13 12 11 10 10 11 11 9 8 7 5 3 3 4 4 3 1 1 2 2 2 4
10 7 7 7 4 4 4 3 3 1 5 4 8 12 5 2 4 7 12 17 16 15 15 16 15 13 12 11 9 8 7 8 10 10 12 16 19 22 24 26 26 27 27 28 29 30 31 31 30 29 29 30 30 27 25 25 26 26 25 24 24 24 23 23 23 23 23 22 20 18 16 16 18 16 14 14 13 12 11 10 11 11 11 9 8 6 4 4 4 4 3 1 1 1 2 2 2
8 5 6 6 2 3 2 1 1 3 5 3 7 11 4 5 7 8 15 16 12 13 15 16 18 17 15 13 12 9 7 8 11 11 11 12 13 18 22 24 25 26 27 29 29 30 31 31 31 30 29 30 30 27 26 26 27 26 25 25 24 24 24 24 24 24 24 23 21 20 18 18 18 17 16 15 15 13 12 11 11 12 12 11 9 7 6 5 5 4 3 3 2 1 1 1 1
7 7 5 4 3 2 0 1 1 3 5 2 9 10 2 5 6 6 13 16 14 14 15 16 18 18 17 15 13 10 8 8 10 12 12 11 14 19 23 24 25 26 28 29 29 30 31 30 31 30 29 30 29 28 27 27 27 25 25 25 25 24 25 25 24 24 23 23 22 21 20 19 19 18 17 17 16 14 13 12 12 12 12 11 10 8 8 7 6 5 5 5 4 3 2 0 1
3 3 5 5 5 3 2 3 2 2 2 2 9 7 3 3 4 4 8 11 12 13 13 15 16 15 14 13 12 11 9 8 9 12 13 13 18 23 24 25 27 28 29 29 29 30 31 31 31 31 30 30 29 28 29 28 26 25 24 25 25 25 25 25 25 24 24 23 23 22 21 21 20 19 18 18 16 14 13 12 12 12 12 11 10 10 10 9 7 6 6 6 5 5 4 2 2
2 1 3 3 5 5 3 3 4 3 2 2 4 3 4 4 4 4 3 5 10 12 11 13 14 13 12 11 12 12 10 8 8 11 13 15 21 24 25 26 27 28 29 29 29 30 31 31 31 31 31 31 31 30 30 29 27 26 25 25 26 26 26 26 25 24 24 23 23 22 21 21 21 19 19 18 17 15 14 12 12 13 12 11 11 11 11 11 10 9 8 7 6 6 5 4 4
1 1 3 3 4 5 2 1 1 3 1 2 3 4 4 2 3 3 2 2 8 12 13 13 13 14 14 13 13 13 12 10 8 11 13 15 20 24 26 27 28 28 29 29 30 32 33 32 32 32 31 32 32 31 30 29 28 27 26 26 26 26 26 25 25 24 24 23 23 22 21 20 20 20 19 19 17 15 15 14 13 13 13 13 13 13 13 13 12 11 10 9 7 7 6 5 5
3 3 4 1 2 2 2 1 1 1 1 3 3 4 4 2 2 3 4 2 5 10 12 13 13 15 15 14 13 13 13 11 9 11 13 15 19 23 25 27 29 30 31 32 32 33 34 33 33 33 32 32 33 32 31 30 29 28 28 27 27 26 26 25 24 23 23 23 23 22 21 20 20 19 19 19 18 17 16 15 15 14 15 15 15 15 14 13 13 13 12 10 9 9 8 7 7
1 4 3 3 2 1 1 2 2 2 2 2 2 4 3 3 3 1 2 2 4 7 10 12 14 15 15 14 14 14 13 11 9 10 11 13 18 23 26 27 29 31 33 34 34 34 33 34 34 34 34 34 34 33 31 31 30 29 29 28 27 26 25 25 25 24 23 22 22 22 21 21 20 19 19 20 19 19 18 16 16 16 16 17 17 16 14 12 12 13 13 11 9 9 9 9 8
5 1 2 3 2 2 1 2 3 2 2 2 2 3 3 5 3 2 6 6 5 7 8 10 12 13 13 13 13 13 13 12 10 9 11 12 18 25 28 28 29 31 33 33 34 33 33 34 34 34 34 33 32 32 31 31 30 29 29 28 28 26 25 25 24 24 23 23 22 22 21 20 20 19 19 19 18 18 19 17 16 16 16 17 17 15 13 12 11 11 12 12 10 8 9 9 7
5 4 4 3 3 1 1 2 1 3 3 2 1 1 4 4 2 1 3 4 6 8 8 8 9 11 11 12 13 12 12 12 10 9 9 11 16 23 27 28 30 30 30 31 32 33 34 34 34 34 33 32 31 31 31 30 30 29 28 28 27 26 25 24 24 24 23 23 22 22 21 20 19 18 18 18 17 17 17 17 16 16 15 16 16 14 13 13 12 11 11 10 10 9 9 9 7
2 3 3 1 3 0 2 2 3 1 3 3 4 3 5 4 4 4 4 1 3 5 6 7 7 9 10 10 11 12 12 12 11 8 8 9 15 21 24 26 26 27 28 30 32 32 32 32 34 34 32 32 32 32 31 31 30 29 29 28 27 26 25 24 24 23 22 22 22 22 21 19 19 18 18 18 17 17 17 16 16 15 15 15 16 14 13 14 13 12 11 10 9 10 10 10 9
Wind_Direction
151 145 146 145 147 118 104 73 73 350 72 85 21 48 195 199 222 126 113 129 138 186 189 141 153 165 149 126 138 130 90 150 160 147 193 222 148 152 160 159 160 160 164 161 155 157 155 154 154 150 147 146 150 144 136 135 130 131 130 125 123 121 121 120 120 119 118 117 118 118 123 128 127 125 122 122 119 116 113 112 108 104 105 108 109 109 107 106 106 106 105 105 103 102 102 103 104
135 144 156 130 146 127 150 149 90 18 70 89 344 169 203 313 166 147 148 166 161 151 139 125 125 120 108 107 125 112 59 8 140 143 103 134 138 149 159 159 160 159 162 155 150 156 154 151 152 150 147 147 150 148 143 140 135 135 133 128 125 125 123 121 121 120 119 118 116 116 119 126 130 129 123 124 121 115 113 114 110 105 109 112 113 112 109 108 106 105 104 104 103 102 102 104 106
132 147 173 161 181 152 181 62 96 92 99 120 192 250 225 113 180 164 170 173 130 121 120 115 97 87 115 115 127 107 95 351 90 109 106 136 138 151 160 159 159 158 159 153 152 158 153 149 150 150 148 149 151 150 147 142 140 138 135 130 127 126 123 121 122 122 122 121 119 119 119 124 132 132 127 125 123 117 114 116 112 108 112 114 115 113 111 110 108 108 107 105 102 102 105 106 105
144 156 185 178 80 82 53 57 110 113 123 144 161 239 220 135 145 136 156 137 124 124 122 122 88 348 103 122 122 71 117 90 98 119 132 153 155 156 158 159 159 159 158 155 155 157 151 149 151 152 153 154 153 153 150 145 144 143 138 134 132 129 126 124 123 124 125 125 122 122 120 125 133 132 127 125 125 120 115 117 116 113 113 112 114 114 111 111 110 110 110 107 104 102 106 108 105
158 154 186 171 83 332 91 81 81 98 145 164 149 231 325 124 126 116 105 100 121 127 129 132 96 43 79 88 91 90 129 117 124 134 131 153 159 155 157 160 160 159 159 154 154 154 152 153 154 157 157 155 154 155 155 151 149 147 144 141 138 135 134 132 131 131 129 128 126 123 122 128 133 131 125 126 128 120 116 121 120 116 110 108 112 111 110 111 111 112 111 110 107 104 105 107 107
172 131 95 170 159 213 99 89 99 102 187 160 133 294 64 121 130 110 84 53 58 96 115 116 113 109 84 43 52 107 132 121 137 142 135 145 156 155 158 161 161 160 159 155 153 152 150 154 155 157 156 154 156 158 159 156 154 151 148 148 145 142 142 142 140 138 133 131 129 127 126 131 133 131 126 124 124 120 120 124 123 117 110 112 112 108 107 108 111 112 112 111 109 107 108 108 111
187 110 43 65 282 92 78 100 123 146 228 126 99 7 66 114 127 112 103 77 43 38 69 106 122 107 82 79 61 92 119 122 138 147 144 145 153 156 160 162 161 159 157 155 151 146 146 151 154 158 159 158 161 162 164 162 159 155 152 152 153 150 148 148 145 142 138 135 133 129 129 132 134 133 127 122 121 122 124 125 124 118 114 116 111 108 107 108 110 111 112 113 111 112 114 115 116
115 360 137 68 11 24 67 92 115 197 155 95 106 310 68 120 133 117 119 115 91 57 103 129 130 100 69 63 68 97 105 119 140 144 145 145 153 157 161 163 161 159 155 152 147 144 147 153 157 161 165 166 168 167 169 167 165 162 159 158 158 156 150 149 147 145 142 138 138 135 133 134 137 134 127 124 123 125 128 127 125 117 114 114 109 109 109 109 108 109 114 118 119 118 120 120 120
51 24 110 88 69 37 54 62 80 253 357 45 348 276 282 240 244 123 117 102 113 115 118 154 141 101 103 63 78 69 95 123 136 138 144 148 155 155 160 166 165 160 153 149 146 148 152 159 162 166 172 173 174 172 173 171 171 167 164 163 160 158 152 150 148 147 146 142 142 140 139 139 139 137 131 128 128 129 130 128 121 113 111 111 108 108 107 108 109 113 120 128 131 127 127 128 126
15 28 55 77 79 64 51 37 96 332 2 8 324 295 300 222 198 131 121 110 120 113 84 81 72 108 118 85 78 78 114 131 133 135 146 150 152 153 158 167 168 160 153 150 149 154 157 164 168 173 178 176 178 179 182 179 176 173 171 169 163 159 154 152 150 150 150 145 143 141 142 142 140 139 135 134 133 132 129 124 117 111 113 113 110 110 112 114 115 121 128 138 143 140 137 135 128
6 355 54 58 62 74 91 71 49 354 336 343 338 323 296 172 116 115 116 109 108 111 114 87 89 114 107 87 64 118 129 135 136 140 148 148 148 151 156 163 167 160 155 153 153 160 163 169 173 178 180 178 180 181 189 190 185 181 176 173 170 164 157 156 153 152 152 148 147 143 144 143 142 142 139 139 137 133 127 123 119 118 120 116 115 117 122 123 123 128 134 143 149 148 144 139 129
10 328 42 74 64 45 109 121 79 360 342 9 356 348 342 116 111 133 123 117 125 122 143 128 128 130 98 88 102 124 133 140 144 144 147 146 147 151 156 160 163 160 158 158 159 165 167 170 171 174 177 172 170 176 186 192 189 180 180 180 173 167 160 159 155 153 153 151 150 148 147 146 147 148 144 142 138 133 130 127 125 125 126 124 127 129 131 131 131 134 137 144 150 151 149 143 135
27 269 67 73 22 23 97 120 105 58 11 23 323 335 8 79 94 147 126 125 140 139 170 150 147 137 91 104 120 133 140 149 149 145 147 147 147 151 154 156 157 158 160 163 164 168 168 167 168 169 169 161 160 172 185 190 182 177 188 183 169 168 165 162 160 157 156 153 151 149 147 147 152 154 148 144 139 136 132 131 130 129 129 131 134 135 141 141 141 142 142 149 152 154 153 150 146
191 224 97 101 354 20 78 102 123 121 123 312 348 333 20 71 355 234 119 126 147 153 129 130 139 110 102 132 132 158 153 154 152 146 147 145 146 146 148 151 152 155 160 167 167 169 170 168 169 167 164 156 156 168 184 187 174 182 193 178 164 166 162 160 163 160 155 153 150 148 145 147 153 153 149 144 141 139 135 134 132 131 131 131 133 140 150 150 149 150 152 159 160 161 163 163 163
170 52 93 108 22 35 56 135 144 128 186 303 353 213 85 84 230 9 102 126 115 142 118 126 145 98 148 168 159 175 156 155 152 144 142 139 140 139 142 146 148 154 160 167 168 170 173 173 173 168 164 159 160 162 176 179 164 179 185 166 161 161 161 162 162 157 155 154 149 148 148 147 150 151 148 143 141 140 136 134 132 132 131 132 138 146 149 144 143 145 153 158 164 171 175 176 175
144 86 70 70 24 30 110 160 136 139 197 98 209 164 103 32 269 74 27 137 130 150 116 151 195 125 167 170 148 155 151 153 148 140 136 131 132 131 136 142 146 152 159 169 175 179 179 182 179 171 169 167 171 168 173 179 163 165 166 163 162 160 166 160 154 155 158 157 150 148 148 145 146 150 146 142 142 139 137 135 133 133 131 137 144 144 136 131 132 136 145 151 160 170 178 180 181
60 78 61 56 117 213 185 173 165 167 166 142 188 163 115 76 338 73 282 74 134 146 66 119 135 112 141 135 138 145 146 146 141 136 130 126 127 126 132 139 142 148 160 175 184 189 186 187 183 177 179 177 179 174 174 180 166 157 160 165 159 160 166 152 149 157 158 157 151 147 147 145 146 148 145 143 144 139 137 135 132 133 134 141 141 135 130 129 133 136 144 151 160 168 179 186 192
62 85 85 148 176 201 196 178 166 143 144 163 183 164 138 132 93 7 57 76 114 109 85 100 85 98 120 127 137 140 140 140 138 136 130 128 128 127 135 140 142 150 160 172 184 187 186 184 182 178 177 173 172 170 171 174 162 153 158 157 147 154 160 148 150 155 154 155 152 149 149 148 146 146 145 146 147 139 138 136 133 134 138 141 138 136 133 133 135 138 146 153 164 176 189 198 207
144 116 122 240 204 194 196 172 156 146 154 153 151 165 150 131 129 23 110 131 126 110 118 116 106 111 120 130 137 138 139 140 141 140 136 136 138 140 145 148 148 155 164 169 176 176 174 170 168 169 166 165 165 167 169 169 159 151 153 149 143 151 154 148 149 152 155 156 155 152 150 150 147 146 146 147 145 139 139 138 135 138 143 142 139 139 134 131 129 131 143 153 168 188 207 223 234
169 116 190 246 214 203 203 172 170 156 149 146 153 167 145 132 135 75 128 137 137 138 146 135 129 134 134 138 139 140 142 143 144 144 143 144 148 153 154 157 155 160 170 170 165 161 159 156 157 162 161 162 165 166 165 161 158 154 152 150 150 154 153 151 150 152 155 157 157 153 152 151 148 147 147 148 146 143 144 142 142 146 149 146 142 138 130 124 118 119 125 134 175 237 248 264 275
174 157 212 247 164 214 220 171 174 142 142 152 156 148 137 147 135 123 137 138 155 168 164 151 144 145 144 144 144 145 146 146 147 147 148 149 154 162 162 161 162 167 170 163 160 158 156 155 158 161 160 161 163 161 157 154 157 157 156 155 155 156 155 154 153 152 154 157 157 156 154 151 150 151 151 151 149 149 151 150 150 152 151 146 140 134 128 121 110 98 77 33 324 300 291 294 298
180 219 245 294 147 214 301 159 162 142 147 151 147 153 148 140 133 143 154 162 181 174 164 155 147 148 149 148 147 149 152 151 150 151 154 156 157 165 166 161 163 169 168 161 161 161 158 158 159 158 157 159 158 156 152 151 155 156 156 157 155 155 157 157 156 154 152 156 159 158 156 153 155 155 153 154 154 155 155 152 153 153 148 141 137 131 123 108 75 21 356 345 338 327 318 314 309
215 261 277 313 194 122 1 90 127 110 132 143 146 145 101 92 141 123 169 195 193 159 156 151 144 147 148 147 149 152 158 158 156 159 161 161 163 168 166 161 165 169 169 165 162 161 160 160 161 158 156 154 153 154 151 150 152 152 152 153 152 152 156 158 156 153 152 157 160 158 156 156 158 157 157 158 156 155 153 151 153 150 145 142 137 127 102 44 7 352 345 344 344 339 336 332 318
210 286 6 28 51 70 38 69 94 94 103 45 37 101 80 48 344 25 289 221 168 147 149 144 138 143 147 147 153 157 160 165 164 167 167 166 168 170 167 163 167 171 170 166 163 162 161 162 163 161 157 152 152 154 152 151 149 149 149 151 152 153 157 156 154 152 153 157 158 157 157 159 161 160 160 156 150 149 150 151 149 146 146 145 139 111 29 2 352 346 345 348 352 353 356 351 327
213 249 50 59 52 68 65 73 88 108 119 60 47 87 91 93 64 5 291 219 148 143 145 144 139 141 151 153 157 160 163 169 169 169 169 165 164 165 166 164 167 172 170 166 166 165 163 163 165 165 161 154 152 152 151 149 148 149 150 151 152 153 155 155 153 153 155 158 158 158 160 162 163 161 155 147 144 147 149 150 148 149 150 146 139 6 353 347 344 343 343 351 359 360 3 357 332
197 120 82 85 66 75 82 85 91 101 119 112 104 92 29 85 81 344 277 203 144 141 146 149 147 144 153 159 162 165 167 173 171 168 164 159 158 161 165 165 168 173 171 169 169 168 166 166 168 170 167 159 155 152 151 150 150 152 152 154 154 153 154 154 155 157 157 158 157 158 161 162 160 155 150 145 146 148 151 153 154 158 156 152 329 346 345 338 340 344 346 354 357 351 353 352 334
118 105 85 81 68 59 70 89 84 78 49 71 127 134 27 65 77 245 244 184 143 140 148 153 155 151 153 160 167 169 172 177 172 161 152 153 159 163 166 166 170 174 172 171 171 170 169 169 172 173 170 164 161 159 157 155 154 154 154 156 156 154 155 156 156 157 157 157 156 157 160 160 155 152 150 147 148 150 155 161 165 170 165 141 328 337 341 338 340 344 350 354 347 338 338 344 340
105 105 92 80 73 53 48 81 65 56 52 8 117 116 44 29 84 214 203 167 143 142 149 155 159 158 155 160 167 173 176 173 166 156 151 160 167 168 170 170 171 173 174 174 173 172 171 171 173 173 170 167 166 165 162 159 157 157 157 158 156 157 160 158 157 157 156 155 155 156 158 157 155 154 153 151 153 156 161 167 169 173 159 341 321 329 338 339 338 339 343 342 333 328 328 336 344
109 103 102 100 83 50 28 59 19 9 93 16 100 99 22 287 17 315 218 159 144 144 150 156 161 161 162 164 169 179 171 159 162 164 164 167 170 172 173 175 173 171 175 175 173 173 173 174 175 173 170 169 170 169 165 159 158 160 158 158 157 159 161 160 159 158 155 153 153 155 156 158 158 158 156 157 159 161 164 167 167 164 354 324 316 330 332 328 329 327 326 326 321 319 327 341 352
98 77 106 119 83 37 26 64 324 343 79 358 31 122 194 276 17 310 272 161 146 147 154 159 161 165 171 173 176 178 163 157 167 172 170 167 169 172 173 176 175 171 173 175 174 175 175 176 176 174 172 172 172 170 165 159 159 160 157 157 161 162 161 161 160 159 157 154 154 155 158 161 163 164 163 162 165 168 169 172 183 231 284 291 310 325 321 319 317 316 318 318 318 322 334 348 357
104 89 77 69 93 310 17 150 223 198 54 334 16 119 188 201 135 275 288 176 154 153 161 162 164 171 174 180 181 175 168 173 176 173 171 168 167 171 172 175 176 173 173 175 176 176 177 178 176 175 175 173 172 170 166 161 159 158 158 161 163 161 160 160 161 162 164 161 159 159 160 164 168 172 172 171 175 180 186 200 214 215 223 250 289 301 304 308 307 319 330 323 323 332 337 347 0
114 119 54 14 93 180 307 234 221 151 122 266 27 113 170 163 201 257 297 207 165 159 167 169 170 177 178 183 181 174 177 181 177 172 171 169 166 169 173 174 176 176 175 177 177 175 177 180 177 176 177 172 169 168 166 163 160 158 162 165 166 165 163 164 166 169 171 169 168 166 166 168 172 179 180 180 185 188 196 204 198 197 208 234 269 279 284 298 318 339 348 337 335 336 336 348 1
224 125 138 145 128 160 222 259 290 266 141 166 84 122 144 154 219 257 313 239 184 166 171 175 177 182 180 182 181 173 170 177 176 172 172 170 167 170 173 175 177 177 176 176 176 174 176 180 180 177 175 173 169 167 167 164 161 162 164 166 168 169 169 173 177 178 177 176 176 175 177 183 186 186 183 184 186 185 190 194 194 196 203 233 258 267 280 319 340 348 348 345 339 332 337 347 355
248 82 118 164 157 166 193 187 297 269 192 114 112 134 156 152 187 224 323 244 198 177 178 181 181 185 182 179 179 173 165 173 175 173 173 172 170 170 173 176 177 177 176 176 176 176 177 179 181 179 176 175 171 168 169 166 166 167 166 167 170 171 176 184 186 186 185 183 182 183 189 195 193 187 181 183 183 182 189 193 197 201 211 246 256 264 303 341 350 353 347 345 337 331 341 346 347
176 168 135 148 163 186 207 191 182 197 198 149 135 142 212 183 166 169 64 227 206 195 189 186 184 183 183 177 175 172 170 178 179 176 176 174 171 168 172 176 175 176 177 177 177 178 179 180 181 181 179 177 174 173 173 172 173 173 173 174 176 181 189 189 186 187 186 184 185 188 193 194 192 188 184 184 182 184 191 195 204 217 225 241 250 258 324 353 5 9 355 350 340 339 351 348 339
185 188 149 156 157 201 219 180 168 170 146 150 155 155 199 230 177 146 98 338 226 210 201 195 187 180 180 177 174 173 175 182 179 177 177 175 171 167 170 174 173 175 178 178 178 179 181 181 182 182 180 178 177 179 181 182 182 181 182 184 185 190 191 186 183 184 183 182 183 187 189 191 194 197 196 195 192 191 193 199 213 219 218 226 222 229 333 5 18 24 11 1 349 351 8 358 341
182 171 160 176 147 139 238 119 170 169 128 160 173 167 182 205 173 149 151 25 346 209 203 203 191 180 180 176 172 173 176 178 173 176 177 175 172 167 167 171 170 172 177 178 179 180 182 183 183 182 180 179 180 183 185 186 186 186 189 191 190 189 185 183 183 184 184 183 185 188 190 195 200 204 205 204 203 198 194 198 205 205 205 200 178 172 8 13 23 24 18 13 0 1 15 13 6
177 154 158 180 137 120 4 88 171 170 102 158 173 170 174 166 128 166 154 108 45 197 201 204 192 185 185 175 171 173 168 161 165 172 174 173 172 167 165 168 168 171 175 179 181 181 184 186 184 182 180 181 182 183 185 186 187 188 191 193 193 189 186 187 189 188 189 190 193 196 199 204 206 207 206 207 206 200 198 197 189 194 198 185 174 176 4 22 30 25 24 27 16 13 23 27 19
170 122 137 175 152 128 56 75 149 57 33 156 168 177 174 80 8 228 165 155 180 172 207 226 193 187 192 180 171 170 156 149 164 168 171 173 172 168 168 170 171 173 175 177 181 183 184 186 186 184 182 182 182 184 186 187 188 190 195 196 193 190 191 196 197 194 196 201 205 206 206 205 204 204 204 205 207 203 208 204 190 195 200 200 215 219 318 18 31 31 36 34 23 24 38 43 29
158 140 154 186 175 167 136 160 165 147 40 125 132 162 301 348 320 287 204 174 225 206 226 277 207 191 194 188 178 171 161 156 166 168 169 172 171 169 171 173 173 173 174 176 180 183 185 188 188 187 185 183 184 186 188 189 190 194 200 200 194 191 192 195 196 194 198 204 208 209 206 201 197 198 199 201 206 209 215 214 207 208 209 221 232 231 299 6 40 46 49 38 21 25 39 51 49
204 183 185 182 180 182 111 140 152 109 51 101 106 65 316 250 257 266 211 160 246 243 238 270 226 205 193 190 194 184 169 161 165 169 169 170 171 173 175 175 174 173 176 178 181 184 187 191 191 189 188 187 187 187 188 191 192 192 192 190 190 191 191 193 195 195 198 201 204 206 203 199 195 194 196 200 208 215 220 220 220 220 214 218 222 229 288 352 45 50 52 43 28 25 34 53 62
252 214 208 192 177 155 115 132 140 130 182 170 146 160 260 212 218 239 212 177 218 226 233 239 214 207 198 184 196 201 183 170 167 167 169 171 172 174 176 177 176 176 179 181 182 184 186 190 190 190 190 191 190 188 187 190 193 189 182 177 178 181 183 191 196 196 197 199 201 203 202 201 198 198 200 201 207 218 224 222 221 222 215 207 203 210 253 312 64 50 50 46 39 30 36 53 59
257 233 206 171 152 138 138 149 151 165 199 183 172 181 250 231 227 228 209 202 215 207 216 228 210 202 208 191 187 188 186 183 172 166 169 172 172 172 175 179 179 180 183 182 182 184 185 187 188 190 192 193 194 191 189 192 193 190 185 181 180 180 181 188 195 196 197 199 200 202 202 202 202 204 205 202 206 219 227 225 221 219 212 202 196 194 186 170 167 83 55 57 46 31 40 50 49
243 218 160 149 156 157 158 159 153 152 104 136 175 168 64 247 234 216 199 205 218 215 215 223 216 203 207 202 190 179 178 185 178 170 170 172 173 173 176 181 183 183 183 182 182 184 186 186 187 189 192 194 196 195 194 196 195 193 193 192 192 191 190 192 196 199 201 202 202 203 202 201 202 204 204 202 206 218 229 226 219 215 209 206 205 191 176 180 191 193 77 77 49 27 35 45 46
253 163 128 139 146 144 148 143 99 78 86 138 189 165 155 262 243 181 184 203 218 218 214 215 213 208 206 201 196 184 174 181 184 176 173 175 176 177 178 181 184 183 182 183 183 185 188 189 189 191 192 194 195 196 198 201 202 199 197 198 198 199 201 200 200 202 204 204 206 207 206 204 199 197 199 203 208 217 227 223 216 214 211 211 213 202 205 228 216 210 162 109 72 33 29 37 44
150 89 83 74 79 80 79 64 23 21 73 189 197 181 190 270 221 161 172 206 220 216 210 210 208 207 207 201 196 188 170 177 189 182 176 178 179 180 180 179 181 182 182 183 184 185 188 189 190 193 194 195 197 198 200 204 206 204 201 201 202 200 203 204 202 201 202 204 207 209 211 209 200 196 199 207 213 220 224 222 217 216 214 214 217 217 235 243 225 226 220 164 84 48 28 37 44
106 93 87 68 60 59 52 32 10 341 286 219 190 185 187 292 219 180 186 207 210 206 203 201 202 207 208 204 198 189 173 172 187 189 181 180 181 182 179 177 179 180 181 181 182 185 187 189 190 194 196 198 200 201 203 206 208 207 205 206 205 202 202 203 200 199 201 204 208 209 210 208 202 200 204 211 218 223 225 223 220 218 216 219 222 226 241 235 226 236 235 198 70 64 63 52 51
108 99 112 86 34 20 47 24 10 270 262 255 181 176 172 289 242 201 211 218 205 198 201 192 192 203 206 206 202 191 176 171 181 190 185 179 180 181 179 179 179 178 179 180 182 185 187 189 191 193 196 199 202 205 208 209 207 207 208 209 209 206 204 204 202 201 204 208 210 210 209 205 202 203 209 215 219 224 228 226 223 222 219 220 224 225 230 226 225 236 234 223 21 79 101 79 66
109 99 100 92 36 4 37 295 324 218 252 265 159 156 164 257 250 217 219 225 208 197 202 192 190 198 200 201 200 192 178 173 178 185 186 180 178 180 181 180 178 177 180 182 183 185 186 189 191 193 196 199 203 207 210 209 207 208 210 210 211 209 205 205 205 205 207 211 212 210 208 204 204 207 212 217 220 224 228 228 227 225 220 220 224 227 232 232 232 240 245 251 272 261 139 106 93
132 132 123 113 110 68 181 239 309 248 272 287 142 147 202 266 264 229 215 218 207 197 200 194 193 197 197 197 195 191 182 176 179 182 185 184 181 181 182 181 179 180 183 184 184 185 186 189 191 194 197 199 203 207 209 208 209 211 213 213 212 211 209 207 208 208 209 212 213 213 213 210 209 212 215 218 220 225 230 231 229 223 218 221 226 233 239 240 240 244 249 250 254 256 243 141 85
143 143 133 130 145 146 174 206 216 220 278 76 133 153 212 232 253 247 222 218 204 195 198 196 195 195 192 193 194 193 187 179 181 183 185 187 184 183 183 182 182 183 185 185 185 186 187 189 192 195 196 199 204 207 208 210 212 214 216 216 215 212 212 211 211 212 213 214 215 216 217 217 216 217 220 221 222 225 230 231 227 219 217 222 229 237 242 242 243 244 246 242 240 249 258 268 283
338 6 109 127 172 163 151 195 192 156 126 119 150 200 228 210 243 271 257 221 193 187 191 190 194 190 181 188 197 196 191 182 183 186 188 188 185 184 184 183 184 184 185 186 187 187 188 190 193 196 197 199 203 206 208 211 214 215 217 217 216 215 214 213 213 215 216 217 219 219 219 220 221 223 223 223 223 225 231 233 227 219 218 225 232 236 240 242 245 247 247 243 237 243 255 264 274
195 151 193 202 176 153 137 221 110 97 127 210 206 259 294 303 301 330 8 198 182 180 183 185 188 183 178 188 196 198 193 183 184 189 189 187 185 185 186 185 185 185 185 188 189 190 190 191 193 196 198 200 203 206 209 212 213 215 217 217 218 217 216 217 219 219 220 221 221 221 221 221 223 225 225 224 224 227 233 236 231 223 222 228 233 237 241 245 248 249 249 248 243 243 250 256 264
142 180 229 228 71 82 110 127 48 83 216 246 220 252 300 327 297 331 27 77 177 178 179 182 182 180 184 190 193 197 195 183 182 189 188 187 186 186 187 187 186 186 187 189 192 193 193 193 194 196 198 200 203 206 208 212 213 214 216 217 218 219 221 224 225 225 225 223 222 222 222 223 224 227 227 228 229 230 234 237 234 230 230 232 236 241 245 246 247 248 248 248 245 243 249 255 261
283 204 204 90 72 312 78 152 198 195 214 266 280 292 285 218 233 270 102 153 190 179 177 181 183 183 187 189 190 195 194 184 182 188 188 187 188 188 188 188 188 188 189 191 193 194 193 194 196 198 200 202 204 205 207 210 214 215 217 219 219 221 224 226 226 226 225 223 222 222 223 224 227 229 229 230 231 231 233 235 235 236 237 236 237 242 245 245 245 244 243 243 242 242 247 252 257
347 322 31 59 172 195 180 192 177 161 185 230 318 334 274 227 236 194 170 176 179 178 181 186 188 188 188 187 187 191 194 190 184 186 189 188 189 190 189 188 189 189 191 192 192 194 194 195 197 198 201 203 203 204 206 209 213 215 217 220 221 222 223 225 225 225 225 224 224 225 227 228 229 229 227 226 228 229 231 234 237 238 236 234 234 238 240 241 243 243 241 241 243 242 244 248 252
350 358 25 13 308 295 228 237 186 138 154 168 148 283 261 255 307 273 203 177 170 179 184 186 190 190 189 190 188 189 193 193 186 182 187 188 188 191 191 190 190 190 190 192 192 194 195 195 196 198 200 201 201 203 205 208 211 213 216 219 221 222 223 225 226 226 227 227 228 231 232 233 233 228 225 225 226 227 230 235 238 237 232 228 229 232 237 240 243 242 239 241 243 239 239 245 250
350 22 34 316 274 348 103 267 287 132 135 162 161 199 270 304 351 326 310 301 173 170 174 183 190 189 189 192 190 189 192 192 187 177 179 187 189 190 191 189 189 189 189 191 192 194 195 195 196 197 198 200 201 202 204 207 210 212 215 220 222 223 224 226 227 227 227 227 230 234 235 235 233 229 228 229 229 229 233 236 236 233 230 227 227 232 237 240 242 244 242 242 244 242 242 246 253